Location: Michelbach Markt
(48.1000°N, 15.7500°E)
Time: 13:34:31
(UTC+02:00)

ISS - Visible Passes

Search period start: 29 September 2022 00:00
Search period end: 09 October 2022 00:00
Orbit: 414 x 417 km, 51.6° (Epoch: 29 September)

Date Brightness Start Highest point End Pass type
(mag) Time Alt. Az. Time Alt. Az. Time Alt. Az.
29 Sep -3.7 20:33:15 10° WNW 20:36:36 64° SSW 20:36:41 63° SSW visible
30 Sep -3.8 19:44:29 10° WNW 19:47:51 89° N 19:49:52 22° ESE visible
30 Sep -0.9 21:21:43 10° W 21:22:45 15° WSW 21:22:45 15° WSW visible
01 Oct -2.4 20:32:36 10° W 20:35:35 30° SW 20:35:58 29° SSW visible
02 Oct -2.9 19:43:38 10° WNW 19:46:53 45° SSW 19:49:15 16° SE visible
03 Oct -1.1 20:32:31 10° WSW 20:34:18 14° SW 20:35:29 12° SSW visible
04 Oct -1.5 19:43:00 10° W 19:45:37 21° SW 19:48:14 10° SSE visible
05 Oct -2.1 18:53:49 10° W 18:56:52 32° SW 18:59:54 10° SSE visible
07 Oct -0.9 18:53:20 10° W 18:55:21 15° SW 18:57:22 10° S visible
